COSMOS 1275 DEB

Satellite information

Favourite Embed

Satellite Type and Status

DEBRISIN ORBIT

Key statistics

Satellite COSMOS 1275 DEB at a glance.

Uptime

16048

Days in orbit

Revolutions

≈ 14.0

Per day

Orbit

LEO

Low Earth Orbit

Inclination

83.1

Latest

Satellite identification and parameters

Extended collection of information and parameters for COSMOS 1275 DEB.

Object identification

Identified? True

Debris? True

Object name: COSMOS 1275 DEB

International designator: 1981-053FE

Object number (NORAD): 13458

Object ID (CCSDS): 13458

Country: COMMONWEALTH OF INDEPENDENT STATES (CIS)

Current information (Y/N): Y

RCS size: MEDIUM

Orbital parameters

Period: 102.728 minutes

Inclination: 83.0889 deg

SMA: 7265.831 km

Apoapsis: 904.15 km

Periapsis: 871.241 km

RAAN: 105.8641 deg

Eccentricy: 0.0022646

Argument of periapsis: 295.515 deg

Mean anomaly: 64.368 deg

Mean motion: 14.0176388 rev/day

Mean motion (dot): 0.00001096 rev/day2

B* drag term: 0.00070991 1/REarth

Two-line elements (TLE)

Creation date: May 12, 2025, 2:31 a.m.

Reference frame: TEME

Reference center: EARTH

Epoch: May 11, 2025, 9:07 p.m. UTC

TLE line 0: 0 COSMOS 1275 DEB

TLE line 1: 1 13458U 81053FE 25131.88000835 .00001096 00000-0 70991-3 0 9997

TLE line 2: 2 13458 83.0889 105.8641 0022646 295.5150 64.3680 14.01763880202785

Live tracking on map

Real-time ground track for satellite COSMOS 1275 DEB.

In-orbit conjunctions

A list of the most updated potential collisions computed for object COSMOS 1275 DEB.

Target Orbit TCA Probability of collision Miss distance Type
THORAD AGENA D DEB SSO 2025-03-26 17:13:17 0.0002018788 168.0 (m) DEBRIS
FENGYUN 1C DEB SSO 2024-12-01 09:32:44 0.0001049409 406.0 (m) DEBRIS
SL-14 DEB LEO 2024-10-18 06:33:22 0.0002863529 54.0 (m) DEBRIS

Associated space launch

Navigation satellite providing location information for the Tsiklon-B navigation system

COSMOS 1275 DEB was lifted into orbit during the mission ‘Kosmos-3M | Parus 27’, on board a Kosmos-3M space rocket.

The launch took place on June 4, 1981, 3:41 p.m. from 132/2.

For more information about the launch, click the button.

Launch to space Kosmos-3M | Parus 27
Kosmos-3M | Parus 27

Agency: N/A

Status: Launch Successful

Launch date: June 4, 1981, 3:41 p.m. UTC

Rocket: Kosmos-3M

Launch pad: 132/2

Location: Plesetsk Cosmodrome, Russian Federation

...

Latest news about this satellite

There are no fresh news available about this satellite. Check back as we update our databases every day.


Newsletter sign-up

Weekly statistics, charts and insights to help you stay on top of the space industry.